Simultaneous Nadir Overpasses (SNOs) Predictions

Prediction of SNOs between GOES-17 and LANDSAT-8 Satellite Orbit:

Table of predicted SNOs for the next 14.0 days since TLE Epoch: 11/4/2023
Index Date Time (GOES-17) GOES-17 Lat,Lon LANDSAT-8 Lat,Lon Distance(km) Time Diff (sec)
1 11/04/2023 05:08:34 -0.01,-104.66 0.12,-104.04 70.20 1
2 11/06/2023 04:55:03 -0.01,-104.65 0.77,-101.08 406.40 80
3 11/06/2023 17:16:17 0.00,-104.67 0.34,-106.23 177.96 80
4 11/08/2023 17:06:45 0.00,-104.67 -0.28,-103.27 158.96 80
5 11/09/2023 05:28:08 -0.00,-104.66 -0.81,-108.46 432.57 80
6 11/10/2023 16:54:32 0.00,-104.67 -0.92,-100.31 496.11 80
7 11/11/2023 05:15:55 -0.00,-104.66 -0.16,-105.50 95.50 80
8 11/13/2023 05:01:01 0.00,-104.65 0.45,-102.53 241.41 80
9 11/13/2023 17:22:16 -0.01,-104.66 0.65,-107.68 343.64 80
10 11/15/2023 17:10:02 -0.01,-104.66 0.01,-104.72 7.21 80
11 11/17/2023 17:00:28 -0.01,-104.64 -0.65,-101.75 329.50 80
